Carlsbad, NM

6:49 AM MDT on October 22, 2017 (GMT -0600)
Cavern City

Weather History for KCNM - December, 2012

Change the Weather History Date:

Tuesday, December 4, 2012

  Actual Average Record
Temperature  
Mean Temperature 52 °F -  
Max Temperature 62 °F 61 °F 81 °F (1958)
Min Temperature 37 °F 30 °F 17 °F (1990)
Degree Days  
Heating Degree Days 12    
Growing Degree Days 2 (Base 50)    
Moisture  
Dew Point 29 °F    
Average Humidity 45    
Maximum Humidity 68    
Minimum Humidity 32    
Precipitation  
Precipitation 0.00 in - - ()
Sea Level Pressure  
Sea Level Pressure 30.23 in    
Wind  
Wind Speed 7 mph (NW)    
Max Wind Speed 12 mph    
Max Gust Speed -    
Visibility 10 miles    
Events      
Averages and records for this station are not official NWS values.
T = Trace of Precipitation, MM = Missing Value Source: NWS Daily Summary

Daily Weather History Graph

Daily Weather History Graph

Search for Another Location

Airport or City:

Trip Planner

Search our weather history database for the weather conditions in past years. The results will help you decide how hot, cold, wet, or windy it might be!

Date:

Astronomy

Dec. 04, 2012 Rise Set
Actual Time 6:43 AM MST 4:51 PM MST
Civil Twilight 6:16 AM MST 5:18 PM MST
Nautical Twilight 5:46 AM MST 5:48 PM MST
Astronomical Twilight 5:16 AM MST 6:18 PM MST
Moon 10:28 PM MST (12/4) 10:50 AM MST (12/4)
Length of Visible Light 11h 01m
Length of Day
10h 08m
Waning Gibbous, 69% of the Moon is Illuminated
Dec 4
Waning Gibbous
Dec 6
Last Quarter
Dec 13
New
Dec 19
First Quarter
Dec 28
Full

Hourly Weather History & Observations

Time (MST) Temp. Windchill Dew Point Humidity Pressure Visibility Wind Dir Wind Speed Gust Speed Precip Events Conditions
12:53 AM 43.0 °F 36.8 °F 23.0 °F 45% 30.04 in 10.0 mi North 11.5 mph - N/A   Clear
1:53 AM 46.9 °F - 21.9 °F 37% 30.05 in 10.0 mi WNW 6.9 mph - N/A   Clear
2:53 AM 46.0 °F 41.4 °F 23.0 °F 40% 30.09 in 10.0 mi WNW 9.2 mph - N/A   Clear
3:53 AM 46.0 °F 41.4 °F 24.1 °F 42% 30.12 in 10.0 mi NW 9.2 mph - N/A   Clear
4:53 AM 46.9 °F - 25.0 °F 42% 30.17 in 10.0 mi NW 10.4 mph - N/A   Clear
5:53 AM 45.0 °F 40.1 °F 26.1 °F 48% 30.21 in 10.0 mi NW 9.2 mph - N/A   Clear
6:53 AM 44.1 °F 38.6 °F 27.0 °F 51% 30.26 in 10.0 mi NW 10.4 mph - N/A   Clear
7:53 AM 48.0 °F - 28.0 °F 46% 30.29 in 10.0 mi NW 11.5 mph - N/A   Clear
8:53 AM 52.0 °F - 28.9 °F 41% 30.31 in 10.0 mi WNW 9.2 mph - N/A   Clear
9:53 AM 55.9 °F - 32.0 °F 40% 30.32 in 10.0 mi North 3.5 mph - N/A   Clear
10:53 AM 57.0 °F - 32.0 °F 39% 30.31 in 10.0 mi Calm Calm - N/A   Clear
11:53 AM 60.1 °F - 32.0 °F 35% 30.30 in 10.0 mi NNE 3.5 mph - N/A   Clear
12:53 PM 61.0 °F - 32.0 °F 34% 30.28 in 10.0 mi North 5.8 mph - N/A   Clear
1:53 PM 61.0 °F - 32.0 °F 34% 30.25 in 10.0 mi Calm Calm - N/A   Clear
2:53 PM 62.1 °F - 32.0 °F 32% 30.25 in 10.0 mi Calm Calm - N/A   Clear
3:53 PM 61.0 °F - 32.0 °F 34% 30.24 in 10.0 mi Calm Calm - N/A   Clear
4:53 PM 57.9 °F - 32.0 °F 37% 30.24 in 10.0 mi Calm Calm - N/A   Clear
5:53 PM 51.1 °F - 30.9 °F 46% 30.26 in 10.0 mi WSW 3.5 mph - N/A   Clear
6:53 PM 46.9 °F - 30.0 °F 52% 30.27 in 10.0 mi WSW 6.9 mph - N/A   Clear
7:53 PM 45.0 °F 41.2 °F 30.0 °F 56% 30.28 in 10.0 mi West 6.9 mph - N/A   Clear
8:53 PM 43.0 °F 40.3 °F 30.0 °F 60% 30.27 in 10.0 mi WSW 4.6 mph - N/A   Clear
9:53 PM 43.0 °F 40.3 °F 28.9 °F 58% 30.27 in 10.0 mi NNW 4.6 mph - N/A   Clear
10:53 PM 43.0 °F - 28.9 °F 58% 30.26 in 10.0 mi Calm Calm - N/A   Clear
11:53 PM 37.9 °F 34.4 °F 28.0 °F 68% 30.26 in 10.0 mi West 4.6 mph - N/A   Clear